Flag for Denmark Weather past 2 weeks in Vejle, Denmark

Now
50 °F

Light rain. Partly sunny.


Feels Like: 47 °F
Forecast: 47 / 56 °F
Wind: 8 mph from Southeast

Location: Billund Lufthavn

Current Time: Oct 21, 2014 at 9:59:07 AM

Latest Report: Oct 21, 2014 at 9:20 AM


Visibility: 4 mi

Pressure: 29.56 "Hg

Humidity: 100%

Dew point: 50 °F

Location of VejleLocation

Historic Weather in Vejle — Graph

°F

Vejle temperature yesterday

Maximum temperature yesterday: 59 °F (at 12:20 AM)
Minimum temperature yesterday: 50 °F (at 11:20 PM)
Average temperature yesterday: 54 °F

Past Weeks' High & Low Weather Summary

 TemperatureHumidityPressure
High63 °F (Oct 11, 2:20 PM)100% (Oct 8, 7:20 AM)30.07 "Hg (Oct 8, 7:20 AM)
Low39 °F (Oct 12, 10:50 PM)59% (Oct 6, 3:50 PM)29.42 "Hg (Oct 7, 5:50 PM)
Average54 °F90%29.76 "Hg
* Reported Oct 6 8:20 AM — Oct 21 8:50 AM, Vejle, Weather by CustomWeather, © 2014

Note: Actual official high and low records may vary slightly from our data, if they occured in-between our weather recording intervals... More about our weather records

Advertising

Vejle weather history for previous 24 hours

 ConditionsComfort  
Time TempWeatherWind HumidityBarometerVisibility
8:50 AM
Oct 21
50 °FPassing clouds.8 mph100%29.56 "Hg4 mi
8:20 AM50 °FLow clouds.7 mph100%29.59 "Hg3 mi
7:50 AM50 °FPassing clouds.7 mph100%29.59 "Hg3 mi
7:20 AM50 °FPassing clouds.5 mph100%29.59 "Hg4 mi
6:50 AM50 °FPassing clouds.6 mph100%29.62 "Hg4 mi
6:20 AM50 °FFog.5 mph94%29.62 "Hg1 mi
5:50 AM48 °FFog.5 mph100%29.62 "Hg1 mi
5:20 AM48 °FPartly cloudy.3 mph100%29.65 "Hg4 mi
4:50 AM48 °FFog.6 mph100%29.65 "Hg2 mi
4:20 AM48 °FFog.3 mph100%29.68 "Hg0 mi
3:50 AM48 °FFog.3 mph100%29.68 "Hg0 mi
3:20 AM48 °FPassing clouds.3 mph100%29.68 "Hg6 mi
2:50 AM50 °FPassing clouds.5 mph94%29.68 "Hg5 mi
2:20 AM50 °FPassing clouds.6 mph94%29.71 "Hg4 mi
1:50 AM50 °FSprinkles. Passing clouds.5 mph100%29.71 "Hg3 mi
1:20 AM50 °FPassing clouds.3 mph100%29.71 "Hg4 mi
12:50 AM50 °FPassing clouds.6 mph100%29.71 "Hg4 mi
12:20 AM50 °FPassing clouds.6 mph100%29.71 "Hg4 mi
11:50 PM
Oct 20
50 °FPassing clouds.6 mph100%29.71 "Hg4 mi
11:20 PM50 °FSprinkles. Passing clouds.7 mph100%29.71 "Hg4 mi
10:50 PM52 °FDrizzle. Overcast.7 mph94%29.74 "Hg4 mi
10:20 PM52 °FDrizzle. Overcast.7 mph94%29.74 "Hg5 mi
9:50 PM52 °FPassing clouds.5 mph94%29.74 "Hg4 mi
9:20 PM52 °FDrizzle. Overcast.5 mph94%29.74 "Hg4 mi
8:50 PM52 °FPassing clouds.5 mph94%29.74 "Hg4 mi
8:20 PMN/APassing clouds.8 mphN/A29.74 "Hg3 mi
7:50 PM52 °FPassing clouds.7 mph94%29.74 "HgN/A
7:20 PM54 °FPassing clouds.7 mph82%29.74 "HgN/A
6:50 PM54 °FPartly sunny.7 mph82%29.74 "HgN/A
6:20 PM54 °FPartly sunny.7 mph82%29.74 "HgN/A
5:50 PM54 °FPartly sunny.6 mph82%29.74 "HgN/A
5:20 PM54 °FPartly sunny.9 mph77%29.74 "HgN/A
4:50 PM55 °FPassing clouds.12 mph72%29.74 "HgN/A
4:20 PM55 °FScattered clouds.13 mph67%29.74 "HgN/A
3:50 PM55 °FPassing clouds.20 mph67%29.74 "HgN/A
3:20 PM57 °FPartly sunny.17 mph67%29.74 "HgN/A
2:50 PM55 °FBroken clouds.21 mph67%29.74 "HgN/A
2:20 PM55 °FPartly sunny.18 mph72%29.74 "HgN/A
1:50 PM55 °FPartly sunny.20 mph72%29.74 "HgN/A
1:20 PM55 °FPartly sunny.21 mph77%29.74 "HgN/A
12:50 PM55 °FPartly sunny.18 mph72%29.74 "HgN/A
12:20 PM55 °FPartly sunny.18 mph77%29.74 "HgN/A
11:50 AM55 °FPartly sunny.17 mph77%29.71 "HgN/A
11:20 AM55 °FPartly sunny.14 mph77%29.71 "HgN/A
10:50 AM55 °FPartly sunny.14 mph77%29.71 "HgN/A
10:20 AM54 °FPartly sunny.15 mph88%29.71 "HgN/A
9:50 AM54 °FBroken clouds.16 mph88%29.68 "HgN/A
9:20 AM54 °FPartly sunny.12 mph82%29.68 "HgN/A
Weather by CustomWeather, © 2014

See weather overviewHow to use our weather pages